Regional Weather Roundup
Issued by NWS

Home | Current Version | Previous Version | Text Only | Print | Product List | Glossary On
Versions: 1 2 3 4 5 6 7 8 9 10 11 12 13 14 15 16 17 18 19 20 21 22 23 24 25 26 27 28 29 30 31 32 33 34 35 36 37 38 39 40 41 42 43 44 45 46 47 48 49 50
000
ASUS42 KFFC 191203
RWRGA
WEATHER ROUNDUP FOR GEORGIA
NATIONAL WEATHER SERVICE PEACHTREE CITY GA
800 AM EDT THU OCT 19 2017

NOTE: "FAIR" INDICATES FEW OR NO CLOUDS BELOW 12,000 FEET WITH NO
SIGNIFICANT WEATHER AND/OR OBSTRUCTIONS TO VISIBILITY.

* = USE WITH CAUTION. THE STATIONS MARKED WITH AN ASTERISK MAY NOT
REPORT WEATHER SUCH AS PRECIPITATION, FOG, OR THUNDER AND ARE NOT
QUALITY CONTROLLED BY NWS.

THE REMARK "TC" DENOTES TEMPERATURE READING IN DEGREES CELSIUS.

GAZ001>058-191300-
NORTH GEORGIA

CITY           SKY/WX    TMP DP  RH WIND       PRES   REMARKS
ATLANTA        PTCLDY    51  43  74 NE8       30.29R
6HR MIN TEMP:  50; 6HR MAX TEMP:  53;

ATHENS         CLEAR     41  40  96 CALM      30.30R
6HR MIN TEMP:  40; 6HR MAX TEMP:  46;

CHAMBLEE       CLEAR     44  41  89 CALM      30.30R
6HR MIN TEMP:  41; 6HR MAX TEMP:  49;

PEACHTREE CITY CLEAR     41  39  93 CALM      30.30R
6HR MIN TEMP:  41; 6HR MAX TEMP:  44;

ROME           CLOUDY    41  40  96 CALM      30.30R
6HR MIN TEMP:  40; 6HR MAX TEMP:  46;

WEST ATLANTA   CLEAR     42  42 100 CALM      30.30R
6HR MIN TEMP:  41; 6HR MAX TEMP:  48;

GAINESVILLE    CLEAR     46  43  89 NE3       30.31S
6HR MIN TEMP:  46; 6HR MAX TEMP:  49;

CARTERSVILLE   CLEAR     41  41 100 CALM      30.31R
6HR MIN TEMP:  40; 6HR MAX TEMP:  48;



CITY           SKY/WX    TMP DP  RH WIND       PRES   REMARKS
DALTON*        PTCLDY    41  41 100 CALM      30.33R
LAWRENCEVILLE* CLEAR     44  42  93 CALM      30.31R
MARIETTA       PTCLDY    44  42  91 E1        30.29R
KENNESAW*      CLEAR     46  44  93 NE3       30.31R
CANTON*        CLEAR     43  43 100 CALM      30.31S
$$

GAZ059>098-102>109-191300-
CENTRAL GEORGIA

CITY           SKY/WX    TMP DP  RH WIND       PRES   REMARKS
AUGUSTA-BUSH   CLEAR     47  43  86 N6        30.28S
6HR MIN TEMP:  44; 6HR MAX TEMP:  48;

AUGUSTA-DANIEL CLEAR     49  42  77 N7        30.29R
6HR MIN TEMP:  49; 6HR MAX TEMP:  57;

COLUMBUS       CLEAR     53  45  74 CALM      30.26R
6HR MIN TEMP:  51; 6HR MAX TEMP:  57;

MACON          CLEAR     44  43  96 W5        30.27R
6HR MIN TEMP:  43; 6HR MAX TEMP:  46;



CITY           SKY/WX    TMP DP  RH WIND       PRES   REMARKS
LAGRANGE*      CLEAR     45  44  98 CALM      30.28S FOG
SYLVANIA*      CLEAR     51  48  91 CALM      30.26R
MILLEDGEVILLE* CLEAR     52  46  82 CALM      30.28S
$$

GAZ099>101-110>166-191300-
SOUTH GEORGIA

CITY           SKY/WX    TMP DP  RH WIND       PRES   REMARKS
SAVANNAH       PTCLDY    56  54  93 N5        30.23R
6HR MIN TEMP:  56; 6HR MAX TEMP:  61;

VALDOSTA       CLEAR     58  56  93 N7        30.20R
6HR MIN TEMP:  58; 6HR MAX TEMP:  62;

ALMA           CLEAR     58  53  84 VRB3      30.21S
6HR MIN TEMP:  58; 6HR MAX TEMP:  61;

ST SIMONS      CLOUDY    66  63  90 N8        30.17S
6HR MIN TEMP:  65; 6HR MAX TEMP:  68;

FT STEWART     CLEAR     58  52  82 N7        30.21R
ALBANY         CLEAR     53  50  89 N5        30.25R
HUNTER AFB     CLEAR     59  54  84 N8        30.20R
MOODY AFB      CLEAR     56  54  91 NE7       30.19S
BRUNSWICK      PTCLDY    61  57  88 N6        30.19S


CITY           SKY/WX    TMP DP  RH WIND       PRES   REMARKS
BAINBRIDGE*    CLEAR     55  54  94 CALM      30.22R
MOULTRIE*      CLEAR     57  54  88 NE5       30.22R
VIDALIA*       CLEAR     54  50  87 NE5       30.24S
WAYCROSS*      CLEAR     58  55  90 NE3       30.21R
DOUGLAS*       CLEAR     54  52  94 NE7       30.23S
$$




USA.gov is the U.S. government's official web portal to all federal, state and local government web resources and services.